Time,TemperatureF,DewpointF,PressureIn,WindDirection,WindDirectionDegrees,WindSpeedMPH,WindSpeedGustMPH,Humidity,HourlyPrecipIn,Conditions,Clouds,dailyrainin,SoftwareType,DateUTC
2013-10-28 00:01:00,36.9,18.7,27.16,ENE,67,0.0,0.0,48,0.00,,,0.00,WUHU21623XXSP,2013-10-28 04:01:00,
2013-10-28 00:02:00,36.9,18.7,27.16,ENE,67,0.0,0.0,48,0.00,,,0.00,WUHU21623XXSP,2013-10-28 04:02:00,
2013-10-28 00:07:00,36.7,18.5,27.16,ENE,67,0.0,0.0,48,0.00,,,0.00,WUHU21623XXSP,2013-10-28 04:07:00,
2013-10-28 00:12:00,36.5,18.3,27.17,ENE,67,0.0,0.0,48,0.00,,,0.00,WUHU21623XXSP,2013-10-28 04:12:00,
2013-10-28 00:17:00,36.5,18.3,27.17,ENE,67,0.0,0.0,48,0.00,,,0.00,WUHU21623XXSP,2013-10-28 04:17:00,
2013-10-28 00:22:00,36.5,18.3,27.17,ENE,67,0.0,0.0,48,0.00,,,0.00,WUHU21623XXSP,2013-10-28 04:22:00,
2013-10-28 00:27:00,36.3,18.1,27.17,ENE,67,0.0,0.0,48,0.00,,,0.00,WUHU21623XXSP,2013-10-28 04:27:00,
2013-10-28 00:32:00,36.1,18.0,27.17,ENE,67,0.0,0.0,48,0.00,,,0.00,WUHU21623XXSP,2013-10-28 04:32:00,
2013-10-28 00:37:00,36.0,17.9,27.17,ENE,67,0.0,0.0,48,0.00,,,0.00,WUHU21623XXSP,2013-10-28 04:37:00,
2013-10-28 00:42:00,36.0,17.9,27.17,ENE,67,0.0,0.0,48,0.00,,,0.00,WUHU21623XXSP,2013-10-28 04:42:00,
2013-10-28 00:47:00,35.8,17.7,27.17,ENE,67,0.0,0.0,48,0.00,,,0.00,WUHU21623XXSP,2013-10-28 04:47:00,
2013-10-28 00:52:00,35.8,17.7,27.17,ENE,67,0.0,0.0,48,0.00,,,0.00,WUHU21623XXSP,2013-10-28 04:52:00,
2013-10-28 00:57:00,35.8,17.7,27.17,ENE,67,0.0,0.0,48,0.00,,,0.00,WUHU21623XXSP,2013-10-28 04:57:00,
2013-10-28 01:02:00,35.6,17.5,27.17,ENE,67,0.0,0.0,48,0.00,,,0.00,WUHU21623XXSP,2013-10-28 05:02:00,
2013-10-28 01:07:00,35.2,17.1,27.17,ENE,67,0.0,0.0,48,0.00,,,0.00,WUHU21623XXSP,2013-10-28 05:07:00,
2013-10-28 01:13:00,35.2,17.1,27.17,ENE,67,0.0,0.0,48,0.00,,,0.00,WUHU21623XXSP,2013-10-28 05:13:00,
2013-10-28 01:18:00,35.2,17.1,27.17,ENE,67,0.0,0.0,48,0.00,,,0.00,WUHU21623XXSP,2013-10-28 05:18:00,
2013-10-28 01:23:00,35.2,17.1,27.17,ENE,67,0.0,0.0,48,0.00,,,0.00,WUHU21623XXSP,2013-10-28 05:23:00,
2013-10-28 01:28:00,35.1,17.0,27.18,North,0,0.0,0.0,48,0.00,,,0.00,WUHU21623XXSP,2013-10-28 05:28:00,
2013-10-28 01:33:00,35.1,17.0,27.18,ENE,67,0.0,0.0,48,0.00,,,0.00,WUHU21623XXSP,2013-10-28 05:33:00,
2013-10-28 01:38:00,34.9,16.8,27.18,ENE,67,0.0,0.0,48,0.00,,,0.00,WUHU21623XXSP,2013-10-28 05:38:00,
2013-10-28 01:43:00,34.7,16.7,27.18,ENE,67,0.0,0.0,48,0.00,,,0.00,WUHU21623XXSP,2013-10-28 05:43:00,
2013-10-28 01:48:00,34.7,16.7,27.18,ENE,67,0.0,0.0,48,0.00,,,0.00,WUHU21623XXSP,2013-10-28 05:48:00,
2013-10-28 01:53:00,34.7,16.7,27.18,ENE,67,0.0,0.0,48,0.00,,,0.00,WUHU21623XXSP,2013-10-28 05:53:00,
2013-10-28 01:58:00,34.5,16.5,27.18,ENE,67,0.0,0.0,48,0.00,,,0.00,WUHU21623XXSP,2013-10-28 05:58:00,
2013-10-28 02:03:00,34.5,16.5,27.18,ENE,67,0.0,0.0,48,0.00,,,0.00,WUHU21623XXSP,2013-10-28 06:03:00,
2013-10-28 02:08:00,34.5,16.5,27.18,ENE,67,0.0,0.0,48,0.00,,,0.00,WUHU21623XXSP,2013-10-28 06:08:00,
2013-10-28 02:13:00,34.5,16.5,27.19,ENE,67,0.0,0.0,48,0.00,,,0.00,WUHU21623XXSP,2013-10-28 06:13:00,
2013-10-28 02:18:00,34.3,16.3,27.19,ENE,67,0.0,0.0,48,0.00,,,0.00,WUHU21623XXSP,2013-10-28 06:18:00,
2013-10-28 02:23:00,34.2,16.2,27.19,ENE,67,0.0,0.0,48,0.00,,,0.00,WUHU21623XXSP,2013-10-28 06:23:00,
2013-10-28 02:28:00,34.2,16.2,27.20,ENE,67,0.0,0.0,48,0.00,,,0.00,WUHU21623XXSP,2013-10-28 06:28:00,
2013-10-28 02:33:00,34.2,16.2,27.19,ENE,67,0.0,0.0,48,0.00,,,0.00,WUHU21623XXSP,2013-10-28 06:33:00,
2013-10-28 02:38:00,34.0,16.0,27.19,ENE,67,0.0,0.0,48,0.00,,,0.00,WUHU21623XXSP,2013-10-28 06:38:00,
2013-10-28 02:43:00,34.0,16.0,27.19,North,0,0.0,0.0,48,0.00,,,0.00,WUHU21623XXSP,2013-10-28 06:43:00,
2013-10-28 02:48:00,34.0,16.0,27.19,ENE,67,0.0,0.0,48,0.00,,,0.00,WUHU21623XXSP,2013-10-28 06:48:00,
2013-10-28 02:53:00,34.0,16.0,27.20,ENE,67,0.0,0.0,48,0.00,,,0.00,WUHU21623XXSP,2013-10-28 06:53:00,
2013-10-28 02:58:00,34.0,16.0,27.20,ENE,67,0.0,0.0,48,0.00,,,0.00,WUHU21623XXSP,2013-10-28 06:58:00,
2013-10-28 03:03:00,34.0,16.0,27.20,ENE,67,0.0,0.0,48,0.00,,,0.00,WUHU21623XXSP,2013-10-28 07:03:00,
2013-10-28 03:08:00,34.0,16.0,27.20,ENE,67,0.0,0.0,48,0.00,,,0.00,WUHU21623XXSP,2013-10-28 07:08:00,
2013-10-28 03:13:00,33.8,15.8,27.20,ENE,67,0.0,0.0,48,0.00,,,0.00,WUHU21623XXSP,2013-10-28 07:13:00,
2013-10-28 03:18:00,33.8,15.8,27.20,ENE,67,0.0,0.0,48,0.00,,,0.00,WUHU21623XXSP,2013-10-28 07:18:00,
2013-10-28 03:23:00,33.6,15.7,27.20,ENE,67,0.0,0.0,48,0.00,,,0.00,WUHU21623XXSP,2013-10-28 07:23:00,
2013-10-28 03:29:00,33.8,15.8,27.21,ENE,67,0.0,0.0,48,0.00,,,0.00,WUHU21623XXSP,2013-10-28 07:29:00,
2013-10-28 03:34:00,33.6,15.7,27.20,ENE,67,0.0,0.0,48,0.00,,,0.00,WUHU21623XXSP,2013-10-28 07:34:00,
2013-10-28 03:39:00,33.6,15.7,27.21,ENE,67,0.0,0.0,48,0.00,,,0.00,WUHU21623XXSP,2013-10-28 07:39:00,
2013-10-28 03:44:00,33.6,15.7,27.21,ENE,67,0.0,0.0,48,0.00,,,0.00,WUHU21623XXSP,2013-10-28 07:44:00,
2013-10-28 03:49:00,33.4,15.5,27.21,ENE,67,0.0,0.0,48,0.00,,,0.00,WUHU21623XXSP,2013-10-28 07:49:00,
2013-10-28 03:54:00,33.6,15.7,27.22,ENE,67,0.0,0.0,48,0.00,,,0.00,WUHU21623XXSP,2013-10-28 07:54:00,
2013-10-28 03:59:00,33.4,15.5,27.22,ENE,67,0.0,0.0,48,0.00,,,0.00,WUHU21623XXSP,2013-10-28 07:59:00,
2013-10-28 04:04:00,33.4,15.5,27.22,ENE,67,0.0,0.0,48,0.00,,,0.00,WUHU21623XXSP,2013-10-28 08:04:00,
2013-10-28 04:09:00,33.4,15.5,27.22,North,0,0.0,0.0,48,0.00,,,0.00,WUHU21623XXSP,2013-10-28 08:09:00,
2013-10-28 04:14:00,33.3,15.4,27.22,ENE,67,0.0,0.0,48,0.00,,,0.00,WUHU21623XXSP,2013-10-28 08:14:00,
2013-10-28 04:19:00,33.3,15.4,27.22,ENE,67,0.0,0.0,48,0.00,,,0.00,WUHU21623XXSP,2013-10-28 08:19:00,
2013-10-28 04:24:00,33.1,15.2,27.22,ENE,67,0.0,0.0,48,0.00,,,0.00,WUHU21623XXSP,2013-10-28 08:24:00,
2013-10-28 04:29:00,32.9,15.0,27.22,ENE,67,0.0,0.0,48,0.00,,,0.00,WUHU21623XXSP,2013-10-28 08:29:00,
2013-10-28 04:34:00,32.9,15.0,27.22,North,0,0.0,0.0,48,0.00,,,0.00,WUHU21623XXSP,2013-10-28 08:34:00,
2013-10-28 04:39:00,32.9,15.0,27.22,ENE,67,0.0,0.0,48,0.00,,,0.00,WUHU21623XXSP,2013-10-28 08:39:00,
2013-10-28 04:44:00,32.7,14.8,27.22,ENE,67,0.0,0.0,48,0.00,,,0.00,WUHU21623XXSP,2013-10-28 08:44:00,
2013-10-28 04:49:00,32.7,14.8,27.22,ENE,67,0.0,0.0,48,0.00,,,0.00,WUHU21623XXSP,2013-10-28 08:49:00,
2013-10-28 04:54:00,32.7,14.8,27.22,ENE,67,0.0,0.0,48,0.00,,,0.00,WUHU21623XXSP,2013-10-28 08:54:00,
2013-10-28 04:59:00,32.7,14.8,27.22,ENE,67,0.0,0.0,48,0.00,,,0.00,WUHU21623XXSP,2013-10-28 08:59:00,
2013-10-28 05:04:00,32.5,14.6,27.22,ENE,67,0.0,0.0,48,0.00,,,0.00,WUHU21623XXSP,2013-10-28 09:04:00,
2013-10-28 05:09:00,32.5,14.6,27.23,ENE,67,0.0,0.0,48,0.00,,,0.00,WUHU21623XXSP,2013-10-28 09:09:00,
2013-10-28 05:14:00,32.5,14.6,27.23,ENE,67,0.0,0.0,48,0.00,,,0.00,WUHU21623XXSP,2013-10-28 09:14:00,
2013-10-28 05:19:00,32.5,14.6,27.23,ENE,67,0.0,0.0,48,0.00,,,0.00,WUHU21623XXSP,2013-10-28 09:19:00,
2013-10-28 05:24:00,32.5,14.6,27.24,ENE,67,0.0,0.0,48,0.00,,,0.00,WUHU21623XXSP,2013-10-28 09:24:00,
2013-10-28 05:29:00,32.4,14.5,27.24,ENE,67,0.0,0.0,48,0.00,,,0.00,WUHU21623XXSP,2013-10-28 09:29:00,
2013-10-28 05:34:00,32.4,14.5,27.24,ENE,67,0.0,0.0,48,0.00,,,0.00,WUHU21623XXSP,2013-10-28 09:34:00,
2013-10-28 05:39:00,32.4,14.5,27.25,ENE,67,0.0,0.0,48,0.00,,,0.00,WUHU21623XXSP,2013-10-28 09:39:00,
2013-10-28 05:44:00,32.2,14.4,27.25,ENE,67,0.0,0.0,48,0.00,,,0.00,WUHU21623XXSP,2013-10-28 09:44:00,
2013-10-28 05:49:00,32.2,14.4,27.25,ENE,67,0.0,0.0,48,0.00,,,0.00,WUHU21623XXSP,2013-10-28 09:49:00,
2013-10-28 05:54:00,31.8,14.0,27.26,ENE,67,0.0,0.0,48,0.00,,,0.00,WUHU21623XXSP,2013-10-28 09:54:00,
2013-10-28 05:59:00,31.8,14.0,27.26,ENE,67,0.0,0.0,48,0.00,,,0.00,WUHU21623XXSP,2013-10-28 09:59:00,
2013-10-28 06:04:00,31.6,13.8,27.25,ENE,67,0.0,0.0,48,0.00,,,0.00,WUHU21623XXSP,2013-10-28 10:04:00,
2013-10-28 06:09:00,31.6,13.8,27.26,ENE,67,0.0,0.0,48,0.00,,,0.00,WUHU21623XXSP,2013-10-28 10:09:00,
2013-10-28 06:14:00,31.5,13.7,27.26,ENE,67,0.0,0.0,48,0.00,,,0.00,WUHU21623XXSP,2013-10-28 10:14:00,
2013-10-28 06:19:00,31.3,13.5,27.27,ENE,67,0.0,0.0,48,0.00,,,0.00,WUHU21623XXSP,2013-10-28 10:19:00,
2013-10-28 06:24:00,31.1,13.3,27.27,ENE,67,0.0,0.0,48,0.00,,,0.00,WUHU21623XXSP,2013-10-28 10:24:00,
2013-10-28 06:29:00,31.3,13.5,27.27,ENE,67,0.0,0.0,48,0.00,,,0.00,WUHU21623XXSP,2013-10-28 10:29:00,
2013-10-28 06:34:00,31.1,13.3,27.27,ENE,67,0.0,0.0,48,0.00,,,0.00,WUHU21623XXSP,2013-10-28 10:34:00,
2013-10-28 06:39:00,31.1,13.3,27.27,ENE,67,0.0,0.0,48,0.00,,,0.00,WUHU21623XXSP,2013-10-28 10:39:00,
2013-10-28 06:44:00,30.9,13.2,27.28,ENE,67,0.0,0.0,48,0.00,,,0.00,WUHU21623XXSP,2013-10-28 10:44:00,
2013-10-28 06:49:00,31.1,13.3,27.28,ENE,67,0.0,0.0,48,0.00,,,0.00,WUHU21623XXSP,2013-10-28 10:49:00,
2013-10-28 06:54:00,31.3,13.5,27.28,ENE,67,0.0,0.0,48,0.00,,,0.00,WUHU21623XXSP,2013-10-28 10:54:00,
2013-10-28 06:59:00,31.6,13.8,27.28,ENE,67,0.0,0.0,48,0.00,,,0.00,WUHU21623XXSP,2013-10-28 10:59:00,
2013-10-28 07:04:00,32.0,14.2,27.28,ENE,67,0.0,0.0,48,0.00,,,0.00,WUHU21623XXSP,2013-10-28 11:04:00,
2013-10-28 07:09:00,32.2,14.4,27.28,ENE,67,0.0,0.0,48,0.00,,,0.00,WUHU21623XXSP,2013-10-28 11:09:00,
2013-10-28 07:14:00,32.2,14.4,27.28,ENE,67,0.0,0.0,48,0.00,,,0.00,WUHU21623XXSP,2013-10-28 11:14:00,
2013-10-28 07:19:00,32.2,14.4,27.29,ENE,67,0.0,0.0,48,0.00,,,0.00,WUHU21623XXSP,2013-10-28 11:19:00,
2013-10-28 07:24:00,32.2,14.4,27.29,ENE,67,0.0,0.0,48,0.00,,,0.00,WUHU21623XXSP,2013-10-28 11:24:00,
2013-10-28 07:29:00,32.4,14.5,27.30,ENE,67,0.0,0.0,48,0.00,,,0.00,WUHU21623XXSP,2013-10-28 11:29:00,
2013-10-28 07:34:00,32.4,14.5,27.30,ENE,67,0.0,0.0,48,0.00,,,0.00,WUHU21623XXSP,2013-10-28 11:34:00,
2013-10-28 07:39:00,32.4,14.5,27.30,ENE,67,0.0,0.0,48,0.00,,,0.00,WUHU21623XXSP,2013-10-28 11:39:00,
2013-10-28 07:44:00,32.4,14.5,27.30,ENE,67,0.0,0.0,48,0.00,,,0.00,WUHU21623XXSP,2013-10-28 11:44:00,
2013-10-28 07:49:00,32.5,14.6,27.31,ENE,67,0.0,0.0,48,0.00,,,0.00,WUHU21623XXSP,2013-10-28 11:49:00,
2013-10-28 07:54:00,32.7,14.8,27.31,ENE,67,0.0,0.0,48,0.00,,,0.00,WUHU21623XXSP,2013-10-28 11:54:00,
2013-10-28 07:59:00,32.7,14.8,27.31,ENE,67,0.0,0.0,48,0.00,,,0.00,WUHU21623XXSP,2013-10-28 11:59:00,
2013-10-28 08:04:00,32.7,14.8,27.32,ENE,67,0.0,0.0,48,0.00,,,0.00,WUHU21623XXSP,2013-10-28 12:04:00,
2013-10-28 08:09:00,32.7,14.8,27.32,ENE,67,0.0,0.0,48,0.00,,,0.00,WUHU21623XXSP,2013-10-28 12:09:00,
2013-10-28 08:14:00,32.9,15.0,27.32,ENE,67,0.0,0.0,48,0.00,,,0.00,WUHU21623XXSP,2013-10-28 12:14:00,
2013-10-28 08:19:00,32.9,15.0,27.32,ENE,67,0.0,0.0,48,0.00,,,0.00,WUHU21623XXSP,2013-10-28 12:19:00,
2013-10-28 08:24:00,33.3,15.4,27.32,ENE,67,0.0,0.0,48,0.00,,,0.00,WUHU21623XXSP,2013-10-28 12:24:00,
2013-10-28 08:29:00,33.4,15.5,27.33,ENE,67,0.0,0.0,48,0.00,,,0.00,WUHU21623XXSP,2013-10-28 12:29:00,
2013-10-28 08:34:00,33.6,15.7,27.33,ENE,67,0.0,0.0,48,0.00,,,0.00,WUHU21623XXSP,2013-10-28 12:34:00,
2013-10-28 08:39:00,33.8,15.8,27.33,ENE,67,0.0,0.0,48,0.00,,,0.00,WUHU21623XXSP,2013-10-28 12:39:00,
2013-10-28 08:44:00,34.2,16.2,27.34,ENE,67,0.0,0.0,48,0.00,,,0.00,WUHU21623XXSP,2013-10-28 12:44:00,
2013-10-28 08:49:00,34.5,16.5,27.34,ENE,67,0.0,0.0,48,0.00,,,0.00,WUHU21623XXSP,2013-10-28 12:49:00,
2013-10-28 08:54:00,34.7,16.7,27.34,ENE,67,0.0,0.0,48,0.00,,,0.00,WUHU21623XXSP,2013-10-28 12:54:00,
2013-10-28 08:59:00,35.4,17.3,27.34,NE,45,0.0,0.0,48,0.00,,,0.00,WUHU21623XXSP,2013-10-28 12:59:00,
2013-10-28 09:04:00,36.0,17.9,27.34,North,0,1.7,2.5,48,0.00,,,0.00,WUHU21623XXSP,2013-10-28 13:04:00,
2013-10-28 09:09:00,36.5,18.3,27.35,NNW,337,0.0,2.5,48,0.00,,,0.00,WUHU21623XXSP,2013-10-28 13:09:00,
2013-10-28 09:14:00,37.0,18.8,27.35,North,0,3.6,3.6,48,0.00,,,0.00,WUHU21623XXSP,2013-10-28 13:14:00,
2013-10-28 09:19:00,37.8,19.5,27.35,NNW,337,1.6,3.6,48,0.00,,,0.00,WUHU21623XXSP,2013-10-28 13:19:00,
2013-10-28 09:24:00,38.1,19.8,27.35,NNW,337,0.0,2.7,48,0.00,,,0.00,WUHU21623XXSP,2013-10-28 13:24:00,
2013-10-28 09:29:00,38.3,20.0,27.35,NW,315,0.0,1.3,48,0.00,,,0.00,WUHU21623XXSP,2013-10-28 13:29:00,
2013-10-28 09:34:00,38.8,20.4,27.35,NNW,337,0.0,3.8,48,0.00,,,0.00,WUHU21623XXSP,2013-10-28 13:34:00,
2013-10-28 09:39:00,39.2,20.8,27.36,NNW,337,0.0,4.0,48,0.00,,,0.00,WUHU21623XXSP,2013-10-28 13:39:00,
2013-10-28 09:44:00,39.6,21.2,27.36,NNW,337,0.0,4.5,48,0.00,,,0.00,WUHU21623XXSP,2013-10-28 13:44:00,
2013-10-28 09:49:00,39.9,21.5,27.37,NNE,22,0.0,4.5,48,0.00,,,0.00,WUHU21623XXSP,2013-10-28 13:49:00,
2013-10-28 09:54:00,40.5,22.0,27.37,WNW,292,3.4,3.4,48,0.00,,,0.00,WUHU21623XXSP,2013-10-28 13:54:00,
2013-10-28 09:59:00,41.0,22.5,27.37,North,0,2.2,3.4,48,0.00,,,0.00,WUHU21623XXSP,2013-10-28 13:59:00,
2013-10-28 10:04:00,41.2,22.6,27.37,NNW,337,0.8,3.1,48,0.00,,,0.00,WUHU21623XXSP,2013-10-28 14:04:00,
2013-10-28 10:09:00,41.7,23.1,27.37,NNW,337,0.0,3.1,48,0.00,,,0.00,WUHU21623XXSP,2013-10-28 14:09:00,
2013-10-28 10:14:00,41.9,23.3,27.37,NNW,337,1.3,2.0,48,0.00,,,0.00,WUHU21623XXSP,2013-10-28 14:14:00,
2013-10-28 10:19:00,42.3,23.7,27.38,NNW,335,2.8,5.1,48,0.00,,,0.00,WUHU21623XXSP,2013-10-28 14:19:00,
2013-10-28 10:24:00,42.4,23.8,27.37,NNW,342,2.3,5.1,48,0.00,,,0.00,WUHU21623XXSP,2013-10-28 14:24:00,
2013-10-28 10:29:00,43.0,24.3,27.37,North,6,8.1,57.0,48,0.00,,,0.00,WUHU21623XXSP,2013-10-28 14:29:00,
2013-10-28 10:34:00,43.3,24.6,27.37,NNW,348,1.3,57.0,48,0.00,,,0.00,WUHU21623XXSP,2013-10-28 14:34:00,
2013-10-28 10:39:00,43.5,24.8,27.38,North,5,2.4,57.0,48,0.00,,,0.00,WUHU21623XXSP,2013-10-28 14:39:00,
2013-10-28 10:44:00,43.9,25.1,27.38,North,0,57.0,57.0,48,0.00,,,0.00,WUHU21623XXSP,2013-10-28 14:44:00,
2013-10-28 10:49:00,44.2,25.4,27.38,NNE,22,4.3,57.0,48,0.00,,,0.00,WUHU21623XXSP,2013-10-28 14:49:00,
2013-10-28 10:54:00,44.6,25.8,27.38,NNW,331,3.0,4.9,48,0.00,,,0.00,WUHU21623XXSP,2013-10-28 14:54:00,
2013-10-28 10:59:00,44.8,26.0,27.39,North,0,57.0,57.0,48,0.00,,,0.00,WUHU21623XXSP,2013-10-28 14:59:00,
2013-10-28 11:04:00,45.3,26.4,27.39,NNW,344,2.9,57.0,48,0.00,,,0.00,WUHU21623XXSP,2013-10-28 15:04:00,
2013-10-28 11:09:00,45.5,26.6,27.39,NNW,345,3.2,57.0,48,0.00,,,0.00,WUHU21623XXSP,2013-10-28 15:09:00,
2013-10-28 11:14:00,45.9,27.0,27.39,ESE,112,3.6,7.6,48,0.00,,,0.00,WUHU21623XXSP,2013-10-28 15:14:00,
2013-10-28 11:19:00,46.0,27.1,27.39,North,11,12.0,57.0,48,0.00,,,0.00,WUHU21623XXSP,2013-10-28 15:19:00,
2013-10-28 11:24:00,46.2,27.3,27.39,NW,315,1.1,57.0,48,0.00,,,0.00,WUHU21623XXSP,2013-10-28 15:24:00,
2013-10-28 11:29:00,46.8,27.8,27.39,ENE,61,3.0,57.0,48,0.00,,,0.00,WUHU21623XXSP,2013-10-28 15:29:00,
2013-10-28 11:34:00,47.1,28.1,27.39,North,0,57.0,57.0,48,0.00,,,0.00,WUHU21623XXSP,2013-10-28 15:34:00,
2013-10-28 11:39:00,47.7,28.6,27.40,ESE,112,1.1,57.0,48,0.00,,,0.00,WUHU21623XXSP,2013-10-28 15:39:00,
2013-10-28 11:45:00,47.8,28.7,27.40,NE,48,1.8,57.0,48,0.00,,,0.00,WUHU21623XXSP,2013-10-28 15:45:00,
2013-10-28 11:50:00,48.0,28.9,27.40,North,0,29.5,57.0,48,0.00,,,0.00,WUHU21623XXSP,2013-10-28 15:50:00,
2013-10-28 11:55:00,48.4,29.3,27.40,NNE,32,2.2,57.0,48,0.00,,,0.00,WUHU21623XXSP,2013-10-28 15:55:00,
2013-10-28 12:00:00,48.6,29.5,27.40,NNE,28,3.2,57.0,48,0.00,,,0.00,WUHU21623XXSP,2013-10-28 16:00:00,
2013-10-28 12:05:00,49.1,29.9,27.40,East,90,2.2,57.0,48,0.00,,,0.00,WUHU21623XXSP,2013-10-28 16:05:00,
2013-10-28 12:10:00,49.5,30.3,27.40,North,2,13.3,57.0,48,0.00,,,0.00,WUHU21623XXSP,2013-10-28 16:10:00,
2013-10-28 12:15:00,49.6,30.4,27.41,North,0,18.0,57.0,48,0.00,,,0.00,WUHU21623XXSP,2013-10-28 16:15:00,
2013-10-28 12:20:00,50.0,30.7,27.40,NE,37,2.8,57.0,48,0.00,,,0.00,WUHU21623XXSP,2013-10-28 16:20:00,
2013-10-28 12:25:00,50.2,30.9,27.41,NNW,345,3.2,57.0,48,0.00,,,0.00,WUHU21623XXSP,2013-10-28 16:25:00,
2013-10-28 12:30:00,50.2,30.9,27.41,NE,45,4.3,57.0,48,0.00,,,0.00,WUHU21623XXSP,2013-10-28 16:30:00,
2013-10-28 12:35:00,50.4,31.1,27.41,NE,45,2.2,57.0,48,0.00,,,0.00,WUHU21623XXSP,2013-10-28 16:35:00,
2013-10-28 12:40:00,50.7,31.4,27.41,North,356,8.6,57.0,48,0.00,,,0.00,WUHU21623XXSP,2013-10-28 16:40:00,
2013-10-28 12:45:00,50.7,31.4,27.41,NE,45,5.4,57.0,48,0.00,,,0.00,WUHU21623XXSP,2013-10-28 16:45:00,
2013-10-28 12:50:00,50.7,31.4,27.41,North,354,2.2,57.0,48,0.00,,,0.00,WUHU21623XXSP,2013-10-28 16:50:00,
2013-10-28 12:55:00,50.7,31.4,27.41,North,359,8.0,57.0,48,0.00,,,0.00,WUHU21623XXSP,2013-10-28 16:55:00,
2013-10-28 13:01:00,50.9,31.6,27.41,NNE,22,0.0,57.0,48,0.00,,,0.00,WUHU21623XXSP,2013-10-28 17:01:00,
2013-10-28 13:06:00,50.9,31.6,27.41,SE,135,4.3,57.0,48,0.00,,,0.00,WUHU21623XXSP,2013-10-28 17:06:00,
2013-10-28 13:11:00,51.3,31.9,27.41,North,5,2.0,57.0,48,0.00,,,0.00,WUHU21623XXSP,2013-10-28 17:11:00,
2013-10-28 13:16:00,51.4,32.0,27.41,North,7,11.5,57.0,48,0.00,,,0.00,WUHU21623XXSP,2013-10-28 17:16:00,
2013-10-28 13:21:00,51.4,32.0,27.41,North,357,16.0,57.0,48,0.00,,,0.00,WUHU21623XXSP,2013-10-28 17:21:00,
2013-10-28 13:26:00,51.6,32.2,27.41,North,1,12.9,57.0,48,0.00,,,0.00,WUHU21623XXSP,2013-10-28 17:26:00,
2013-10-28 13:31:00,52.0,32.6,27.41,North,2,10.2,57.0,48,0.00,,,0.00,WUHU21623XXSP,2013-10-28 17:31:00,
2013-10-28 13:36:00,52.0,32.6,27.41,North,3,15.8,57.0,48,0.00,,,0.00,WUHU21623XXSP,2013-10-28 17:36:00,
2013-10-28 13:41:00,52.0,32.6,27.41,NNW,339,3.0,57.0,48,0.00,,,0.00,WUHU21623XXSP,2013-10-28 17:41:00,
2013-10-28 13:46:00,51.8,32.4,27.41,North,0,0.0,57.0,48,0.00,,,0.00,WUHU21623XXSP,2013-10-28 17:46:00,
2013-10-28 13:51:00,51.6,32.2,27.41,North,7,8.8,57.0,48,0.00,,,0.00,WUHU21623XXSP,2013-10-28 17:51:00,
2013-10-28 13:56:00,51.6,32.2,27.42,NNE,26,2.8,57.0,48,0.00,,,0.00,WUHU21623XXSP,2013-10-28 17:56:00,
2013-10-28 14:01:00,51.4,32.0,27.40,NE,56,2.6,57.0,48,0.00,,,0.00,WUHU21623XXSP,2013-10-28 18:01:00,
2013-10-28 14:06:00,51.3,31.9,27.40,NE,45,1.5,57.0,48,0.00,,,0.00,WUHU21623XXSP,2013-10-28 18:06:00,
2013-10-28 14:11:00,51.3,31.9,27.40,North,4,16.8,57.0,48,0.00,,,0.00,WUHU21623XXSP,2013-10-28 18:11:00,
2013-10-28 14:16:00,51.3,31.9,27.40,NW,308,2.4,57.0,48,0.00,,,0.00,WUHU21623XXSP,2013-10-28 18:16:00,
2013-10-28 14:21:00,51.3,31.9,27.41,NNE,13,7.1,57.0,48,0.00,,,0.00,WUHU21623XXSP,2013-10-28 18:21:00,
2013-10-28 14:26:00,50.9,31.6,27.40,NNE,23,1.9,57.0,48,0.00,,,0.00,WUHU21623XXSP,2013-10-28 18:26:00,
2013-10-28 14:31:00,50.9,31.6,27.41,ENE,57,2.5,5.8,48,0.00,,,0.00,WUHU21623XXSP,2013-10-28 18:31:00,
2013-10-28 14:36:00,50.7,31.4,27.40,NNE,25,3.4,6.3,48,0.00,,,0.00,WUHU21623XXSP,2013-10-28 18:36:00,
2013-10-28 14:41:00,50.4,31.1,27.40,NNE,31,2.9,6.3,48,0.00,,,0.00,WUHU21623XXSP,2013-10-28 18:41:00,
2013-10-28 14:47:00,50.2,30.9,27.41,North,0,4.7,6.3,48,0.00,,,0.00,WUHU21623XXSP,2013-10-28 18:47:00,
2013-10-28 14:52:00,49.6,30.4,27.40,NNE,31,2.1,57.0,48,0.00,,,0.00,WUHU21623XXSP,2013-10-28 18:52:00,
2013-10-28 14:57:00,49.5,30.3,27.41,NNW,337,1.9,57.0,48,0.00,,,0.00,WUHU21623XXSP,2013-10-28 18:57:00,
2013-10-28 15:02:00,49.1,29.9,27.41,North,0,7.8,57.0,48,0.00,,,0.00,WUHU21623XXSP,2013-10-28 19:02:00,
2013-10-28 15:08:00,48.9,29.7,27.41,North,0,29.0,57.0,48,0.00,,,0.00,WUHU21623XXSP,2013-10-28 19:08:00,
2013-10-28 15:13:00,48.7,29.6,27.41,North,5,16.0,57.0,48,0.00,,,0.00,WUHU21623XXSP,2013-10-28 19:13:00,
2013-10-28 15:18:00,48.7,29.6,27.41,NNE,22,1.1,57.0,48,0.00,,,0.00,WUHU21623XXSP,2013-10-28 19:18:00,
2013-10-28 15:23:00,48.6,29.5,27.41,North,0,0.9,57.0,48,0.00,,,0.00,WUHU21623XXSP,2013-10-28 19:23:00,
2013-10-28 15:28:00,48.4,29.3,27.41,NNE,22,2.5,57.0,48,0.00,,,0.00,WUHU21623XXSP,2013-10-28 19:28:00,
2013-10-28 15:33:00,47.8,28.7,27.42,NE,45,4.0,57.0,48,0.00,,,0.00,WUHU21623XXSP,2013-10-28 19:33:00,
2013-10-28 15:38:00,47.5,28.4,27.42,North,0,3.8,57.0,48,0.00,,,0.00,WUHU21623XXSP,2013-10-28 19:38:00,
2013-10-28 15:43:00,47.1,28.1,27.42,North,0,38.4,57.0,48,0.00,,,0.00,WUHU21623XXSP,2013-10-28 19:43:00,
2013-10-28 15:48:00,47.1,28.1,27.42,North,355,9.9,57.0,48,0.00,,,0.00,WUHU21623XXSP,2013-10-28 19:48:00,
2013-10-28 15:53:00,46.9,27.9,27.42,NE,45,1.3,57.0,48,0.00,,,0.00,WUHU21623XXSP,2013-10-28 19:53:00,
2013-10-28 15:58:00,46.8,27.8,27.43,NNW,337,1.8,57.0,48,0.00,,,0.00,WUHU21623XXSP,2013-10-28 19:58:00,
2013-10-28 16:03:00,46.6,27.6,27.42,North,4,12.9,57.0,48,0.00,,,0.00,WUHU21623XXSP,2013-10-28 20:03:00,
2013-10-28 16:08:00,46.6,27.6,27.43,North,2,22.9,57.0,48,0.00,,,0.00,WUHU21623XXSP,2013-10-28 20:08:00,
2013-10-28 16:14:00,46.6,27.6,27.43,North,0,57.0,57.0,48,0.00,,,0.00,WUHU21623XXSP,2013-10-28 20:14:00,
2013-10-28 16:19:00,46.6,27.6,27.42,North,359,9.1,57.0,48,0.00,,,0.00,WUHU21623XXSP,2013-10-28 20:19:00,
2013-10-28 16:24:00,46.2,27.3,27.43,NNW,337,4.7,57.0,48,0.00,,,0.00,WUHU21623XXSP,2013-10-28 20:24:00,
2013-10-28 16:29:00,46.0,27.1,27.43,North,0,7.8,57.0,48,0.00,,,0.00,WUHU21623XXSP,2013-10-28 20:29:00,
2013-10-28 16:34:00,45.9,27.0,27.43,North,1,19.9,57.0,48,0.00,,,0.00,WUHU21623XXSP,2013-10-28 20:34:00,
2013-10-28 16:39:00,45.5,26.6,27.43,North,2,20.6,57.0,48,0.00,,,0.00,WUHU21623XXSP,2013-10-28 20:39:00,
2013-10-28 16:44:00,45.3,26.4,27.43,North,3,9.5,57.0,48,0.00,,,0.00,WUHU21623XXSP,2013-10-28 20:44:00,
2013-10-28 16:49:00,45.3,26.4,27.44,North,10,7.5,57.0,48,0.00,,,0.00,WUHU21623XXSP,2013-10-28 20:49:00,
2013-10-28 16:54:00,45.1,26.2,27.44,North,0,57.0,57.0,48,0.00,,,0.00,WUHU21623XXSP,2013-10-28 20:54:00,
2013-10-28 16:59:00,45.1,26.2,27.44,ESE,112,3.4,57.0,48,0.00,,,0.00,WUHU21623XXSP,2013-10-28 20:59:00,
2013-10-28 17:04:00,45.0,26.1,27.44,North,5,9.1,57.0,48,0.00,,,0.00,WUHU21623XXSP,2013-10-28 21:04:00,
2013-10-28 17:09:00,44.8,26.0,27.44,North,0,57.0,57.0,48,0.00,,,0.00,WUHU21623XXSP,2013-10-28 21:09:00,
2013-10-28 17:14:00,44.6,25.8,27.43,North,5,7.6,57.0,48,0.00,,,0.00,WUHU21623XXSP,2013-10-28 21:14:00,
2013-10-28 17:19:00,44.4,25.6,27.43,NNE,22,3.6,57.0,48,0.00,,,0.00,WUHU21623XXSP,2013-10-28 21:19:00,
2013-10-28 17:24:00,44.2,25.4,27.43,NNE,14,3.2,57.0,48,0.00,,,0.00,WUHU21623XXSP,2013-10-28 21:24:00,
2013-10-28 17:29:00,44.2,25.4,27.43,NE,45,1.3,57.0,48,0.00,,,0.00,WUHU21623XXSP,2013-10-28 21:29:00,
2013-10-28 17:34:00,44.1,25.3,27.43,NE,34,2.0,3.6,48,0.00,,,0.00,WUHU21623XXSP,2013-10-28 21:34:00,
2013-10-28 17:39:00,44.1,25.3,27.43,North,3,2.0,3.6,48,0.00,,,0.00,WUHU21623XXSP,2013-10-28 21:39:00,
2013-10-28 17:44:00,43.7,25.0,27.43,NW,324,2.0,3.8,48,0.00,,,0.00,WUHU21623XXSP,2013-10-28 21:44:00,
2013-10-28 17:49:00,43.7,25.0,27.43,North,359,15.2,57.0,48,0.00,,,0.00,WUHU21623XXSP,2013-10-28 21:49:00,
2013-10-28 17:54:00,43.5,24.8,27.43,North,4,20.6,57.0,48,0.00,,,0.00,WUHU21623XXSP,2013-10-28 21:54:00,
2013-10-28 18:00:00,43.3,24.6,27.43,NNE,22,0.9,57.0,48,0.00,,,0.00,WUHU21623XXSP,2013-10-28 22:00:00,
2013-10-28 18:05:00,43.2,24.5,27.43,NNE,22,1.7,57.0,48,0.00,,,0.00,WUHU21623XXSP,2013-10-28 22:05:00,
2013-10-28 18:10:00,43.2,24.5,27.44,North,0,57.0,57.0,48,0.00,,,0.00,WUHU21623XXSP,2013-10-28 22:10:00,
2013-10-28 18:15:00,43.0,24.3,27.44,North,4,13.1,57.0,48,0.00,,,0.00,WUHU21623XXSP,2013-10-28 22:15:00,
2013-10-28 18:20:00,42.8,24.1,27.43,North,3,20.9,57.0,48,0.00,,,0.00,WUHU21623XXSP,2013-10-28 22:20:00,
2013-10-28 18:25:00,42.8,24.1,27.44,North,2,10.6,57.0,48,0.00,,,0.00,WUHU21623XXSP,2013-10-28 22:25:00,
2013-10-28 18:31:00,42.4,23.8,27.44,NW,326,2.1,57.0,48,0.00,,,0.00,WUHU21623XXSP,2013-10-28 22:31:00,
2013-10-28 18:36:00,42.4,23.8,27.44,NNE,22,1.9,57.0,48,0.00,,,0.00,WUHU21623XXSP,2013-10-28 22:36:00,
2013-10-28 18:41:00,42.3,23.7,27.44,NNE,22,1.3,57.0,48,0.00,,,0.00,WUHU21623XXSP,2013-10-28 22:41:00,
2013-10-28 18:46:00,42.1,23.5,27.45,North,2,24.3,57.0,48,0.00,,,0.00,WUHU21623XXSP,2013-10-28 22:46:00,
2013-10-28 18:51:00,41.9,23.3,27.45,NNE,22,2.0,57.0,48,0.00,,,0.00,WUHU21623XXSP,2013-10-28 22:51:00,
2013-10-28 18:56:00,41.9,23.3,27.45,NE,45,0.0,57.0,48,0.00,,,0.00,WUHU21623XXSP,2013-10-28 22:56:00,
2013-10-28 19:01:00,41.9,23.3,27.45,North,1,20.3,57.0,48,0.00,,,0.00,WUHU21623XXSP,2013-10-28 23:01:00,
2013-10-28 19:06:00,41.7,23.1,27.45,North,0,1.9,57.0,48,0.00,,,0.00,WUHU21623XXSP,2013-10-28 23:06:00,
2013-10-28 19:11:00,41.7,23.1,27.45,North,2,34.1,57.0,48,0.00,,,0.00,WUHU21623XXSP,2013-10-28 23:11:00,
2013-10-28 19:16:00,41.7,23.1,27.46,North,359,23.0,57.0,48,0.00,,,0.00,WUHU21623XXSP,2013-10-28 23:16:00,
2013-10-28 19:21:00,41.5,22.9,27.46,NNW,337,2.0,57.0,48,0.00,,,0.00,WUHU21623XXSP,2013-10-28 23:21:00,
2013-10-28 19:26:00,41.5,22.9,27.46,North,2,9.8,57.0,48,0.00,,,0.00,WUHU21623XXSP,2013-10-28 23:26:00,
2013-10-28 19:31:00,41.4,22.8,27.46,North,2,15.0,57.0,48,0.00,,,0.00,WUHU21623XXSP,2013-10-28 23:31:00,
2013-10-28 19:36:00,41.4,22.8,27.46,NNE,22,2.7,57.0,48,0.00,,,0.00,WUHU21623XXSP,2013-10-28 23:36:00,
2013-10-28 19:41:00,41.4,22.8,27.46,NNE,32,2.7,6.7,48,0.00,,,0.00,WUHU21623XXSP,2013-10-28 23:41:00,
2013-10-28 19:46:00,41.4,22.8,27.46,NE,45,1.8,57.0,48,0.00,,,0.00,WUHU21623XXSP,2013-10-28 23:46:00,
2013-10-28 19:51:00,41.4,22.8,27.46,North,0,29.0,57.0,48,0.00,,,0.00,WUHU21623XXSP,2013-10-28 23:51:00,
2013-10-28 19:56:00,41.4,22.8,27.46,North,1,11.9,57.0,48,0.00,,,0.00,WUHU21623XXSP,2013-10-28 23:56:00,
2013-10-28 20:02:00,41.2,22.6,27.47,North,0,29.1,57.0,48,0.00,,,0.00,WUHU21623XXSP,2013-10-29 00:02:00,
2013-10-28 20:07:00,41.0,22.5,27.47,NNE,22,1.0,57.0,48,0.00,,,0.00,WUHU21623XXSP,2013-10-29 00:07:00,
2013-10-28 20:13:00,41.2,22.6,27.46,NNE,22,1.6,57.0,48,0.00,,,0.00,WUHU21623XXSP,2013-10-29 00:13:00,
2013-10-28 20:18:00,41.2,22.6,27.47,NE,45,1.3,57.0,48,0.00,,,0.00,WUHU21623XXSP,2013-10-29 00:18:00,
2013-10-28 20:23:00,41.0,22.5,27.47,NE,34,2.0,57.0,48,0.00,,,0.00,WUHU21623XXSP,2013-10-29 00:23:00,
2013-10-28 20:28:00,40.6,22.1,27.47,North,0,57.0,57.0,48,0.00,,,0.00,WUHU21623XXSP,2013-10-29 00:28:00,
2013-10-28 20:33:00,40.6,22.1,27.47,WNW,292,2.0,57.0,48,0.00,,,0.00,WUHU21623XXSP,2013-10-29 00:33:00,
2013-10-28 20:38:00,40.6,22.1,27.47,NNE,22,1.1,3.4,48,0.00,,,0.00,WUHU21623XXSP,2013-10-29 00:38:00,
2013-10-28 20:43:00,40.5,22.0,27.47,NNW,348,3.0,5.4,48,0.00,,,0.00,WUHU21623XXSP,2013-10-29 00:43:00,
2013-10-28 20:48:00,40.5,22.0,27.47,NE,36,2.2,57.0,48,0.00,,,0.00,WUHU21623XXSP,2013-10-29 00:48:00,
2013-10-28 20:53:00,40.1,21.6,27.47,North,0,57.0,57.0,48,0.00,,,0.00,WUHU21623XXSP,2013-10-29 00:53:00,
2013-10-28 20:58:00,39.9,21.5,27.48,NNW,343,3.2,57.0,48,0.00,,,0.00,WUHU21623XXSP,2013-10-29 00:58:00,
2013-10-28 21:03:00,39.9,21.5,27.48,North,0,57.0,57.0,48,0.00,,,0.00,WUHU21623XXSP,2013-10-29 01:03:00,
2013-10-28 21:08:00,39.7,21.3,27.48,NW,315,0.0,57.0,48,0.00,,,0.00,WUHU21623XXSP,2013-10-29 01:08:00,
2013-10-28 21:13:00,39.6,21.2,27.48,North,357,22.8,57.0,48,0.00,,,0.00,WUHU21623XXSP,2013-10-29 01:13:00,
2013-10-28 21:18:00,39.6,21.2,27.48,North,356,18.0,57.0,48,0.00,,,0.00,WUHU21623XXSP,2013-10-29 01:18:00,
2013-10-28 21:23:00,39.6,21.2,27.48,NNE,13,1.7,57.0,48,0.00,,,0.00,WUHU21623XXSP,2013-10-29 01:23:00,
2013-10-28 21:28:00,39.6,21.2,27.48,North,356,26.3,57.0,48,0.00,,,0.00,WUHU21623XXSP,2013-10-29 01:28:00,
2013-10-28 21:33:00,39.6,21.2,27.48,NNW,337,14.1,57.0,48,0.00,,,0.00,WUHU21623XXSP,2013-10-29 01:33:00,
2013-10-28 21:38:00,39.6,21.2,27.48,North,357,13.2,57.0,48,0.00,,,0.00,WUHU21623XXSP,2013-10-29 01:38:00,
2013-10-28 21:43:00,39.6,21.2,27.49,North,0,6.6,57.0,48,0.00,,,0.00,WUHU21623XXSP,2013-10-29 01:43:00,
2013-10-28 21:49:00,39.6,21.2,27.49,North,359,22.3,57.0,48,0.00,,,0.00,WUHU21623XXSP,2013-10-29 01:49:00,
2013-10-28 21:55:00,39.6,21.2,27.49,North,355,35.5,57.0,48,0.00,,,0.00,WUHU21623XXSP,2013-10-29 01:55:00,
2013-10-28 22:00:00,39.6,21.2,27.50,NNW,346,3.9,57.0,48,0.00,,,0.00,WUHU21623XXSP,2013-10-29 02:00:00,
2013-10-28 22:05:00,39.6,21.2,27.50,NNW,337,14.1,57.0,48,0.00,,,0.00,WUHU21623XXSP,2013-10-29 02:05:00,
2013-10-28 22:10:00,39.6,21.2,27.50,North,353,6.8,57.0,48,0.00,,,0.00,WUHU21623XXSP,2013-10-29 02:10:00,
2013-10-28 22:15:00,39.7,21.3,27.50,North,358,8.9,57.0,48,0.00,,,0.00,WUHU21623XXSP,2013-10-29 02:15:00,
2013-10-28 22:20:00,39.6,21.2,27.50,North,353,17.1,57.0,48,0.00,,,0.00,WUHU21623XXSP,2013-10-29 02:20:00,
2013-10-28 22:25:00,39.7,21.3,27.50,North,359,15.1,57.0,48,0.00,,,0.00,WUHU21623XXSP,2013-10-29 02:25:00,
2013-10-28 22:30:00,39.6,21.2,27.51,NNW,341,9.4,57.0,48,0.00,,,0.00,WUHU21623XXSP,2013-10-29 02:30:00,
2013-10-28 22:35:00,39.7,21.3,27.51,NW,321,2.3,57.0,48,0.00,,,0.00,WUHU21623XXSP,2013-10-29 02:35:00,
2013-10-28 22:40:00,39.6,21.2,27.51,NNE,22,0.0,57.0,48,0.00,,,0.00,WUHU21623XXSP,2013-10-29 02:40:00,
2013-10-28 22:45:00,39.6,21.2,27.51,North,354,14.9,57.0,48,0.00,,,0.00,WUHU21623XXSP,2013-10-29 02:45:00,
2013-10-28 22:50:00,39.6,21.2,27.51,North,1,17.3,57.0,48,0.00,,,0.00,WUHU21623XXSP,2013-10-29 02:50:00,
2013-10-28 22:55:00,39.6,21.2,27.50,North,357,10.6,57.0,48,0.00,,,0.00,WUHU21623XXSP,2013-10-29 02:55:00,
2013-10-28 23:00:00,39.6,21.2,27.51,North,358,42.7,57.0,48,0.00,,,0.00,WUHU21623XXSP,2013-10-29 03:00:00,
2013-10-28 23:05:00,39.4,21.0,27.50,North,0,38.5,57.0,48,0.00,,,0.00,WUHU21623XXSP,2013-10-29 03:05:00,
2013-10-28 23:10:00,39.4,21.0,27.51,NE,45,0.0,57.0,48,0.00,,,0.00,WUHU21623XXSP,2013-10-29 03:10:00,
2013-10-28 23:15:00,39.4,21.0,27.51,North,0,57.0,57.0,48,0.00,,,0.00,WUHU21623XXSP,2013-10-29 03:15:00,
2013-10-28 23:20:00,39.4,21.0,27.51,NE,45,1.5,57.0,48,0.00,,,0.00,WUHU21623XXSP,2013-10-29 03:20:00,
2013-10-28 23:25:00,38.8,20.4,27.51,NE,45,1.0,57.0,48,0.00,,,0.00,WUHU21623XXSP,2013-10-29 03:25:00,
2013-10-28 23:30:00,38.8,20.4,27.51,North,2,9.7,57.0,48,0.00,,,0.00,WUHU21623XXSP,2013-10-29 03:30:00,
2013-10-28 23:36:00,38.8,20.4,27.51,NW,315,2.2,57.0,48,0.00,,,0.00,WUHU21623XXSP,2013-10-29 03:36:00,
2013-10-28 23:41:00,38.8,20.4,27.51,North,1,38.6,57.0,48,0.00,,,0.00,WUHU21623XXSP,2013-10-29 03:41:00,
2013-10-28 23:46:00,38.8,20.4,27.51,North,0,0.0,57.0,48,0.00,,,0.00,WUHU21623XXSP,2013-10-29 03:46:00,
2013-10-28 23:51:00,39.0,20.6,27.51,North,0,29.1,57.0,48,0.00,,,0.00,WUHU21623XXSP,2013-10-29 03:51:00,
2013-10-28 23:57:00,38.8,20.4,27.51,North,358,29.6,57.0,48,0.00,,,0.00,WUHU21623XXSP,2013-10-29 03:57:00,